Weather History for Beach, ND

Change the Weather History Date:

Sunday, December 9, 2012

  Actual Average (KGDV) Record (KGDV)
Temperature  
Mean Temperature -3 °F -  
Max Temperature 10 °F 33 °F 46 °F (2001)
Min Temperature -16 °F 14 °F -9 °F (2012)
Degree Days  
Heating Degree Days 68    
Moisture  
Dew Point -5 °F    
Average Humidity 79    
Maximum Humidity 92    
Minimum Humidity 62    
Precipitation  
Precipitation 0.00 in - - ()
Sea Level Pressure  
Sea Level Pressure 30.19 in    
Wind  
Wind Speed 8 mph (SW)    
Max Wind Speed 14 mph    
Max Gust Speed -    
Visibility 10 miles    
Events      
Averages and records for this station are not official NWS values.
T = Trace of Precipitation, MM = Missing Value Source: NWS Daily Summary

Daily Weather History Graph

Daily Weather History Graph

Search for Another Location

Airport:

Trip Planner

Search our weather history database for the weather conditions in past years. The results will help you decide how hot, cold, wet, or windy it might be!

Date:

Astronomy

Dec. 09, 2012 Rise Set
Actual Time 7:30 AM MST 4:07 PM MST
Civil Twilight 6:54 AM MST 4:42 PM MST
Nautical Twilight 6:16 AM MST 5:20 PM MST
Astronomical Twilight 5:39 AM MST 5:57 PM MST
Moon 2:53 AM MST (12/9) 1:25 PM MST (12/9)
Length of Visible Light 9h 47m
Length of Day
8h 37m
Waning Crescent, 18% of the Moon is Illuminated
Dec 9
Waning Crescent
Dec 13
New
Dec 19
First Quarter
Dec 28
Full
Jan 4
Last Quarter

Hourly Weather History & Observations

Time (MST) Temp. Windchill Dew Point Humidity Pressure Visibility Wind Dir Wind Speed Gust Speed Precip Events Conditions
12:15 AM -2.2 °F -18.9 °F -5.8 °F 85% 30.23 in 10.0 mi NW 10.4 mph - N/A   Overcast
12:35 AM -2.2 °F -18.9 °F -5.8 °F 85% 30.24 in 10.0 mi NNW 10.4 mph - N/A   Mostly Cloudy
12:55 AM -2.2 °F -18.0 °F -7.6 °F 78% 30.24 in 10.0 mi NNW 9.2 mph - N/A   Partly Cloudy
1:15 AM -4.0 °F -17.8 °F -9.4 °F 78% 30.25 in 10.0 mi NW 6.9 mph - N/A   Clear
1:35 AM -5.8 °F -19.9 °F -11.2 °F 77% 30.25 in 10.0 mi NW 6.9 mph - N/A   Clear
1:55 AM -7.6 °F -22.1 °F -11.2 °F 84% 30.26 in 10.0 mi NW 6.9 mph - N/A   Clear
2:15 AM -7.6 °F -23.4 °F -11.2 °F 84% 30.27 in 10.0 mi NW 8.1 mph - N/A   Clear
2:35 AM -7.6 °F -22.1 °F -11.2 °F 84% 30.27 in 10.0 mi NW 6.9 mph - N/A   Clear
2:55 AM -7.6 °F -24.6 °F -11.2 °F 84% 30.28 in 10.0 mi NW 9.2 mph - N/A   Clear
3:15 AM -7.6 °F -25.7 °F -11.2 °F 84% 30.28 in 10.0 mi NW 10.4 mph - N/A   Clear
3:35 AM -7.6 °F -25.7 °F -11.2 °F 84% 30.29 in 10.0 mi NW 10.4 mph - N/A   Clear
3:55 AM -7.6 °F -23.4 °F -13.0 °F 77% 30.30 in 10.0 mi NW 8.1 mph - N/A   Clear
4:15 AM -7.6 °F -24.6 °F -11.2 °F 84% 30.30 in 10.0 mi NW 9.2 mph - N/A   Clear
4:35 AM -9.4 °F -20.9 °F -13.0 °F 84% 30.31 in 10.0 mi NW 4.6 mph - N/A   Clear
4:55 AM -9.4 °F -20.9 °F -13.0 °F 84% 30.31 in 10.0 mi WNW 4.6 mph - N/A   Clear
5:15 AM -9.4 °F -22.7 °F -14.8 °F 77% 30.32 in 10.0 mi West 5.8 mph - N/A   Partly Cloudy
5:35 AM -9.4 °F -18.6 °F -13.0 °F 84% 30.32 in 10.0 mi WNW 3.5 mph - N/A   Clear
5:55 AM -11.2 °F - -16.6 °F 77% 30.32 in 10.0 mi Calm Calm - N/A   Clear
6:15 AM -11.2 °F - -16.6 °F 77% 30.33 in 10.0 mi Calm Calm - N/A   Clear
6:35 AM -16.6 °F -26.8 °F -20.2 °F 84% 30.33 in 10.0 mi SW 3.5 mph - N/A   Clear
6:55 AM -11.2 °F -23.0 °F -16.6 °F 77% 30.34 in 10.0 mi SW 4.6 mph - N/A   Clear
7:15 AM -11.2 °F -23.0 °F -14.8 °F 84% 30.34 in 10.0 mi WSW 4.6 mph - N/A   Clear
7:35 AM -9.4 °F - -14.8 °F 77% 30.34 in 10.0 mi Calm Calm - N/A   Partly Cloudy
7:55 AM -9.4 °F -18.6 °F -13.0 °F 84% 30.34 in 10.0 mi WSW 3.5 mph - N/A   Mostly Cloudy
8:15 AM -7.6 °F - -11.2 °F 84% 30.35 in 10.0 mi Calm Calm - N/A   Overcast
8:35 AM -5.8 °F - -9.4 °F 84% 30.35 in 10.0 mi Calm Calm - N/A   Scattered Clouds
8:55 AM -2.2 °F -18.0 °F -7.6 °F 78% 30.37 in 10.0 mi West 9.2 mph - N/A   Clear
9:15 AM -0.4 °F -10.4 °F -4.0 °F 85% 30.36 in 10.0 mi WNW 4.6 mph - N/A   Clear
9:35 AM -0.4 °F -8.3 °F -2.2 °F 92% 30.36 in 10.0 mi SW 3.5 mph - N/A   Clear
9:55 AM 1.4 °F - -0.4 °F 92% 30.36 in 10.0 mi Calm Calm - N/A   Clear
10:15 AM 1.4 °F -6.2 °F -0.4 °F 92% 30.36 in 10.0 mi SW 3.5 mph - N/A   Clear
10:35 AM 3.2 °F -4.2 °F -0.4 °F 85% 30.35 in 10.0 mi WSW 3.5 mph - N/A   Scattered Clouds
10:55 AM 5.0 °F -6.9 °F 1.4 °F 85% 30.33 in 10.0 mi SW 6.9 mph - N/A   Partly Cloudy
11:15 AM 6.8 °F -5.9 °F 1.4 °F 79% 30.32 in 10.0 mi SW 8.1 mph - N/A   Clear
11:35 AM 6.8 °F -5.9 °F 1.4 °F 79% 30.30 in 10.0 mi WSW 8.1 mph - N/A   Clear
11:55 AM 8.6 °F -4.7 °F 1.4 °F 73% 30.29 in 10.0 mi WSW 9.2 mph - N/A   Clear
12:15 PM 8.6 °F -7.7 °F 1.4 °F 73% 30.28 in 10.0 mi WSW 13.8 mph - N/A   Clear
12:35 PM 8.6 °F -6.3 °F 1.4 °F 73% 30.27 in 10.0 mi WSW 11.5 mph - N/A   Clear
12:55 PM 8.6 °F -7.0 °F -0.4 °F 67% 30.26 in 10.0 mi WSW 12.7 mph - N/A   Clear
1:15 PM 8.6 °F -6.3 °F -0.4 °F 67% 30.24 in 10.0 mi SW 11.5 mph - N/A   Clear
1:35 PM 8.6 °F -7.7 °F -0.4 °F 67% 30.23 in 10.0 mi SW 13.8 mph - N/A   Clear
1:55 PM 10.4 °F -4.8 °F -0.4 °F 62% 30.22 in 10.0 mi SSW 12.7 mph - N/A   Clear
2:15 PM 10.4 °F -5.4 °F -0.4 °F 62% 30.21 in 10.0 mi SW 13.8 mph - N/A   Partly Cloudy
2:35 PM 10.4 °F -3.3 °F 1.4 °F 67% 30.20 in 10.0 mi SSW 10.4 mph - N/A   Clear
2:55 PM 10.4 °F -3.3 °F 1.4 °F 67% 30.20 in 10.0 mi SW 10.4 mph - N/A   Clear
3:15 PM 10.4 °F -3.3 °F 1.4 °F 67% 30.19 in 10.0 mi SSW 10.4 mph - N/A   Clear
3:35 PM 8.6 °F -3.7 °F -0.4 °F 67% 30.17 in 10.0 mi SSW 8.1 mph - N/A   Clear
3:55 PM 6.8 °F -4.8 °F -0.4 °F 72% 30.16 in 10.0 mi South 6.9 mph - N/A   Clear
4:15 PM 5.0 °F -8.1 °F -0.4 °F 78% 30.15 in 10.0 mi South 8.1 mph - N/A   Clear
4:35 PM 3.2 °F -10.3 °F -2.2 °F 78% 30.14 in 10.0 mi South 8.1 mph - N/A   Clear
4:55 PM 1.4 °F -12.5 °F -2.2 °F 85% 30.13 in 10.0 mi South 8.1 mph - N/A   Clear
5:15 PM 1.4 °F -15.3 °F -4.0 °F 78% 30.11 in 10.0 mi South 11.5 mph - N/A   Clear
5:35 PM -0.4 °F -17.6 °F -4.0 °F 85% 30.10 in 10.0 mi SSW 11.5 mph - N/A   Clear
5:55 PM -0.4 °F -16.7 °F -4.0 °F 85% 30.08 in 10.0 mi South 10.4 mph - N/A   Clear
6:15 PM -0.4 °F -14.7 °F -4.0 °F 85% 30.07 in 10.0 mi South 8.1 mph - N/A   Clear
6:35 PM -0.4 °F -16.7 °F -4.0 °F 85% 30.06 in 10.0 mi South 10.4 mph - N/A   Clear
6:55 PM 1.4 °F -13.5 °F -4.0 °F 78% 30.04 in 10.0 mi South 9.2 mph - N/A   Clear
7:15 PM 1.4 °F -13.5 °F -4.0 °F 78% 30.03 in 10.0 mi South 9.2 mph - N/A   Clear
7:35 PM -0.4 °F -16.7 °F -4.0 °F 85% 30.02 in 10.0 mi SSE 10.4 mph - N/A   Clear
7:55 PM 1.4 °F -13.5 °F -4.0 °F 78% 30.00 in 10.0 mi South 9.2 mph - N/A   Clear
8:15 PM 1.4 °F -13.5 °F -4.0 °F 78% 29.99 in 10.0 mi South 9.2 mph - N/A   Clear
8:35 PM 1.4 °F -14.5 °F -4.0 °F 78% 29.98 in 10.0 mi South 10.4 mph - N/A   Clear
8:55 PM -0.4 °F -17.6 °F -4.0 °F 85% 29.97 in 10.0 mi South 11.5 mph - N/A   Clear
9:15 PM -0.4 °F -15.7 °F -4.0 °F 85% 29.96 in 10.0 mi South 9.2 mph - N/A   Clear
9:35 PM -0.4 °F -13.4 °F -4.0 °F 85% 29.94 in 10.0 mi SSE 6.9 mph - N/A   Clear
9:55 PM 5.0 °F -11.6 °F -0.4 °F 78% 29.92 in 10.0 mi SSW 12.7 mph - N/A   Clear
10:15 PM 6.8 °F -7.8 °F -0.4 °F 72% 29.91 in 10.0 mi South 10.4 mph - N/A   Clear
10:35 PM 5.0 °F -10.8 °F -0.4 °F 78% 29.89 in 10.0 mi South 11.5 mph - N/A   Clear
10:55 PM 3.2 °F -9.1 °F -0.4 °F 85% 29.89 in 10.0 mi South 6.9 mph - N/A   Clear
11:15 PM 5.0 °F -10.0 °F -0.4 °F 78% 29.88 in 10.0 mi SSE 10.4 mph - N/A   Scattered Clouds
11:35 PM 5.0 °F -10.0 °F -0.4 °F 78% 29.86 in 10.0 mi SSE 10.4 mph - N/A   Mostly Cloudy
11:55 PM 5.0 °F -9.1 °F -0.4 °F 78% 29.84 in 10.0 mi South 9.2 mph - N/A   Mostly Cloudy